sat.trackr.live / text

‹ back to catalog

STARLINK-38047

NORAD 69745 · 2026-150G

PAYLOAD ACTIVE UNKNOWN

§ Identity

Operator
Country
US
Launch date
2026-07-02
Launch site
AFWTR
Launch vehicle
Mass (kg)
RCS (m²)

Purposes: comms

External: N2YO · Heavens-Above · Gunter

§ Orbital elements

Epoch: 2026-09-18T23:18:14.431104Z

Period
93.91 min
Inclination
97.2834°
Eccentricity
0.0001179
Mean motion
15.33463228 rev/d
Perigee alt
464.7 km
Apogee alt
466.3 km
Semi-major
6,843.6 km
B*
7.1092e-4
RAAN
100.9522°
Arg perigee
90.3217°
Mean anomaly
269.8161°
Rev number
1,350

§ Raw data

STARLINK-380471 69745U 26150G   26261.97100036  .00022959  00000+0  71092-3 0  99962 69745  97.2834 100.9522 0001179  90.3217 269.8161 15.33463228 13504

JSON: /api/v1/satellites/69745 · /tle

For live sub-satellite position, see the globe view (requires WebGL).

§ Visibility from observer

Set your observer location to see the next 7 days of passes ≥ 10°. The values pass through the URL so the page stays shareable.

No JS? Fill the form by hand. The geolocation button needs JavaScript.